EW7034 Weather Reports


Display with metric or nautical units.
time (UTC)temp
F
wind
direction
speed
MPH
gust
MPH
rain 1hr
in
rain 24hr
in
rain mn
in
humidity
%
barometer
mb
20260505183004 51 0.0 0.0 0.00 0.00 0.00 75 1016.4
20260505181504 51 0.0 0.0 0.00 0.00 0.00 73 1016.4
20260505180004 50 0.0 0.0 0.00 0.00 0.00 73 1016.3
20260505174507 51 0.0 0.0 0.00 0.00 0.00 73 1016.4
20260505173003 50 0.0 0.0 0.00 0.00 0.00 73 1016.4
20260505171506 51 0.0 0.0 0.00 0.00 0.00 72 1016.6
20260505170007 51 0.0 0.0 0.00 0.00 0.00 75 1016.5
20260505164507 51 0.0 0.0 0.00 0.00 0.00 74 1016.6
20260505163004 51 0.0 0.0 0.00 0.00 0.00 75 1016.6
20260505161504 50 0.0 0.0 0.00 0.00 0.00 78 1016.8
20260505153021 51 0.0 0.0 0.00 0.00 0.00 76 1016.9
20260505151532 51 0.0 0.0 0.00 0.00 0.00 75 1016.8
20260505123014 50 0.0 0.0 0.00 0.00 0.00 76 1017.1
20260505121520 51 0.0 0.0 0.00 0.00 0.00 76 1017.0
20260505120027 51 0.0 0.0 0.00 0.00 0.00 73 1017.1
20260505114524 52 0.0 0.0 0.00 0.00 0.00 70 1017.0
20260505113002 52 0.0 0.0 0.00 0.00 0.00 70 1017.1
20260505111502 52 0.0 0.0 0.00 0.00 0.00 69 1017.1
20260505101503 50 0.0 0.0 0.00 0.00 0.00 75 1017.4
20260505100002 50 0.0 0.0 0.00 0.00 0.00 75 1017.5
20260505094501 49 0.0 0.0 0.00 0.00 0.00 76 1017.4
20260505093002 49 0.0 0.0 0.00 0.00 0.00 79 1017.4
20260505091503 50 0.0 0.0 0.00 0.00 0.00 78 1017.4
20260505090005 49 0.0 0.0 0.00 0.00 0.00 78 1017.3
20260505084527 49 0.0 0.0 0.00 0.00 0.00 78 1017.4
20260505083005 49 0.0 0.0 0.00 0.00 0.00 78 1017.4
20260505081508 49 0.0 0.0 0.00 0.00 0.00 77 1017.4
20260505080024 49 0.0 0.0 0.00 0.00 0.00 76 1017.3
20260505074515 49 0.0 0.0 0.00 0.00 0.00 78 1017.3
20260505073023 49 0.0 0.0 0.00 0.00 0.00 81 1017.3
20260505071507 48 0.0 0.0 0.00 0.00 0.00 83 1017.3
20260505070020 47 0.0 0.0 0.00 0.00 0.00 83 1017.2
20260505064515 47 0.0 0.0 0.00 0.00 0.00 85 1017.3
20260505063022 46 0.0 0.0 0.00 0.00 0.00 86 1017.4
20260505061524 46 0.0 0.0 0.00 0.00 0.00 86 1017.3
20260505060008 46 0.0 0.0 0.00 0.00 0.00 87 1017.2
20260505054516 46 0.0 0.0 0.00 0.00 0.00 87 1017.1
20260505053023 46 0.0 0.0 0.00 0.00 0.00 87 1017.1
20260505051526 46 0.0 0.0 0.00 0.00 0.00 88 1017.2
20260505041522 46 0.0 0.0 0.00 0.00 0.00 87 1017.0
20260505040037 46 0.0 0.0 0.00 0.00 0.00 87 1017.1
20260505034535 46 0.0 0.0 0.00 0.00 0.00 87 1017.1
20260505033017 46 0.0 0.0 0.00 0.00 0.00 88 1017.1
20260505031524 46 0.0 0.0 0.00 0.00 0.00 87 1017.3
20260505030022 45 0.0 0.0 0.00 0.00 0.00 88 1017.2
20260505024525 45 0.0 0.0 0.00 0.00 0.00 88 1017.2
20260505023001 44 0.0 0.0 0.00 0.00 0.00 89 1017.2
20260505021501 44 0.0 0.0 0.00 0.00 0.00 90 1017.2
20260505020007 43 0.0 0.0 0.00 0.00 0.00 90 1017.3
20260505014504 43 0.0 0.0 0.00 0.00 0.00 90 1017.4
20260505013009 42 0.0 0.0 0.00 0.00 0.00 90 1017.5
20260505011510 42 0.0 0.0 0.00 0.00 0.00 91 1017.5
20260505010010 41 0.0 0.0 0.00 0.00 0.00 91 1017.6
20260505004507 41 0.0 0.0 0.00 0.00 0.00 93 1017.6
20260505003008 40 0.0 0.0 0.00 0.00 0.00 92 1017.6
20260505001512 40 0.0 0.0 0.00 0.00 0.00 92 1017.7
20260505000014 40 0.0 0.0 0.00 0.00 0.00 91 1017.8
20260504234513 40 0.0 0.0 0.00 0.00 0.00 92 1017.8
20260504233004 40 0.0 0.0 0.00 0.00 0.00 92 1017.9
20260504231509 41 0.0 0.0 0.00 0.00 0.00 91 1017.9
20260504230012 41 0.0 0.0 0.00 0.00 0.00 90 1017.8
20260504224517 42 0.0 0.0 0.00 0.00 0.00 90 1018.0
20260504223014 42 0.0 0.0 0.00 0.00 0.00 90 1017.9
20260504221509 43 0.0 0.0 0.00 0.00 0.00 90 1018.0
20260504220028 44 0.0 0.0 0.00 0.00 0.00 90 1018.0
20260504214514 44 0.0 0.0 0.00 0.00 0.00 89 1018.0
20260504213016 46 0.0 0.0 0.00 0.00 0.00 89 1017.9
20260504211516 47 0.0 0.0 0.00 0.00 0.00 88 1017.8
20260504210008 49 0.0 0.0 0.00 0.00 0.00 89 1017.9
20260504204514 49 0.0 0.0 0.00 0.00 0.00 90 1017.9
20260504203017 49 0.0 0.0 0.00 0.00 0.00 89 1017.9
20260504201516 50 0.0 0.0 0.00 0.00 0.00 88 1017.8
20260504200018 50 0.0 0.0 0.00 0.00 0.00 87 1017.7
20260504194509 51 0.0 0.0 0.00 0.00 0.00 86 1017.6
20260504193015 51 0.0 0.0 0.00 0.00 0.00 86 1017.5
20260504191520 51 0.0 0.0 0.00 0.00 0.00 85 1017.5
20260504190016 52 0.0 0.0 0.00 0.00 0.00 84 1017.5
20260504184516 52 0.0 0.0 0.00 0.00 0.00 84 1017.2